Regional Weather Roundup
Issued by NWS

Home | Current Version | Previous Version | Text Only | Print | Product List | Glossary Off
Versions: 1 2 3 4 5 6 7 8 9 10 11 12 13 14 15 16 17 18 19 20 21 22 23 24 25 26 27

000
ASUS45 KBOI 281510
RWRID

IDAHO REGIONAL WEATHER ROUNDUP
NATIONAL WEATHER SERVICE BOISE ID
900 AM MDT SUN MAY 28 2017

NOTE: "FAIR" INDICATES FEW OR NO CLOUDS BELOW 12000 FEET
WITH NO SIGNIFICANT WEATHER AND/OR OBSTRUCTIONS TO VISIBILITY

IDZ012-014-281600-
SOUTHWEST IDAHO


CITY           SKY/WX    TMP DP  RH WIND       PRES   REMARKS
BOISE          SUNNY     62  42  47 CALM      30.22R
CALDWELL       SUNNY     60  45  57 CALM      30.22R
MOUNTAIN HOME  SUNNY     63  43  49 E13       30.22S
$$

IDZ016-017-281600-
SOUTHCENTRAL IDAHO


CITY           SKY/WX    TMP DP  RH WIND       PRES   REMARKS
BURLEY         SUNNY     53  43  68 CALM      30.27R
JEROME         SUNNY     58  43  57 E13       30.26R
TWIN FALLS     SUNNY     61  42  49 NE3       30.26S
$$

IDZ019>023-281600-
SOUTHEAST IDAHO


CITY           SKY/WX    TMP DP  RH WIND       PRES   REMARKS
IDAHO FALLS    SUNNY     53  45  74 N5        30.31S
POCATELLO      SUNNY     56  42  59 E3        30.30S
REXBURG        SUNNY     50  42  74 CALM      30.32R
$$

IDZ006-010-011-018-031-032-281600-
CENTRAL IDAHO MOUNTAINS


CITY           SKY/WX    TMP DP  RH WIND       PRES   REMARKS
MCCALL         SUNNY     51  38  60 S3        30.28S
HAILEY         SUNNY     54  39  58 NW10      30.33S
STANLEY          N/A     43  34  70 CALM      30.39F
SALMON         SUNNY     50  39  66 CALM      30.31S
CHALLIS        SUNNY     52  34  50 CALM      30.33F
$$

IDZ002-004-006-007-026-281600-
NORTHERN IDAHO


CITY           SKY/WX    TMP DP  RH WIND       PRES   REMARKS
LEWISTON       SUNNY     63  49  60 NE7       30.17S
LOWELL           N/A     52  46  80 CALM      30.25F
COEUR D`ALENE  SUNNY     62  51  67 NE3       30.21R
MULLAN PASS    SUNNY     58  34  40 CALM      30.33R
$$




USA.gov is the U.S. government's official web portal to all federal, state and local government web resources and services.